Precipitable_Water
0.72 0.75 0.76 0.77 0.80 0.80 0.79 0.78 0.74 0.70 0.65 0.66 0.70 0.68 0.65 0.62 0.59 0.56 0.55 0.54 0.56 0.59 0.61 0.62 0.63 0.71 0.72 0.77 0.79 0.79 0.78 0.80 0.71 0.78 0.95 1.06 1.12 1.18 1.27 1.40 1.44 1.47 1.51
0.78 0.79 0.79 0.81 0.83 0.82 0.78 0.77 0.76 0.73 0.72 0.65 0.64 0.65 0.64 0.63 0.59 0.57 0.56 0.58 0.58 0.57 0.58 0.58 0.58 0.65 0.66 0.72 0.75 0.76 0.77 0.81 0.78 0.70 0.85 0.90 0.98 1.09 1.18 1.22 1.30 1.42 1.42
0.82 0.82 0.82 0.82 0.84 0.86 0.91 0.90 0.91 0.88 0.83 0.77 0.69 0.61 0.62 0.65 0.63 0.61 0.59 0.56 0.55 0.54 0.54 0.53 0.53 0.56 0.55 0.58 0.59 0.65 0.74 0.78 0.77 0.70 0.73 0.92 1.01 1.09 1.12 1.19 1.22 1.24 1.31
0.78 0.79 0.77 0.76 0.79 0.83 0.88 0.89 0.91 0.91 0.89 0.87 0.82 0.74 0.67 0.63 0.63 0.63 0.63 0.61 0.60 0.59 0.58 0.56 0.54 0.53 0.53 0.56 0.59 0.58 0.56 0.60 0.70 0.74 0.78 0.81 0.89 0.96 1.04 1.03 1.04 1.19 1.17
0.63 0.67 0.69 0.72 0.75 0.77 0.77 0.78 0.79 0.81 0.81 0.82 0.83 0.81 0.79 0.78 0.76 0.74 0.72 0.68 0.65 0.63 0.63 0.65 0.68 0.71 0.72 0.74 0.72 0.67 0.67 0.61 0.58 0.54 0.63 0.80 0.87 0.94 0.91 0.98 1.02 1.12 1.16
0.57 0.57 0.60 0.65 0.69 0.70 0.73 0.74 0.76 0.76 0.74 0.76 0.76 0.76 0.76 0.77 0.76 0.75 0.71 0.68 0.68 0.67 0.67 0.73 0.77 0.78 0.78 0.77 0.75 0.74 0.76 0.73 0.64 0.61 0.66 0.74 0.86 0.91 1.02 1.03 1.02 0.94 0.94
0.49 0.53 0.55 0.56 0.56 0.62 0.67 0.69 0.68 0.69 0.72 0.72 0.72 0.74 0.73 0.75 0.76 0.76 0.74 0.73 0.72 0.72 0.74 0.73 0.74 0.76 0.76 0.74 0.72 0.73 0.77 0.77 0.78 0.75 0.79 0.84 0.87 1.00 0.98 1.01 0.99 0.98 0.97
0.34 0.39 0.41 0.42 0.43 0.49 0.54 0.55 0.59 0.63 0.66 0.67 0.69 0.73 0.72 0.74 0.77 0.78 0.79 0.79 0.76 0.76 0.76 0.76 0.71 0.70 0.72 0.71 0.72 0.79 0.80 0.84 0.89 0.91 0.88 0.88 0.92 0.91 0.92 0.99 0.96 0.94 0.96
0.27 0.30 0.33 0.36 0.38 0.41 0.43 0.47 0.49 0.50 0.52 0.53 0.59 0.65 0.67 0.71 0.75 0.77 0.76 0.75 0.74 0.74 0.76 0.77 0.75 0.74 0.77 0.80 0.79 0.76 0.76 0.77 0.87 0.90 0.90 0.88 0.87 0.89 0.90 0.85 0.83 0.84 0.80
0.26 0.28 0.31 0.33 0.34 0.36 0.39 0.41 0.44 0.45 0.45 0.46 0.49 0.53 0.59 0.62 0.69 0.73 0.76 0.75 0.72 0.73 0.76 0.80 0.81 0.79 0.79 0.81 0.80 0.77 0.72 0.72 0.73 0.74 0.76 0.79 0.80 0.82 0.84 0.81 0.79 0.76 0.76
0.29 0.29 0.30 0.32 0.32 0.34 0.36 0.38 0.39 0.39 0.39 0.38 0.38 0.39 0.42 0.46 0.51 0.56 0.62 0.64 0.63 0.62 0.59 0.57 0.69 0.74 0.77 0.79 0.80 0.77 0.75 0.77 0.76 0.76 0.75 0.74 0.73 0.71 0.70 0.68 0.60 0.51 0.45
0.30 0.29 0.29 0.30 0.31 0.32 0.32 0.33 0.35 0.36 0.35 0.35 0.34 0.33 0.34 0.36 0.39 0.41 0.42 0.43 0.43 0.38 0.35 0.35 0.35 0.35 0.33 0.35 0.38 0.42 0.47 0.47 0.43 0.40 0.37 0.36 0.36 0.35 0.35 0.35 0.36 0.36 0.36
0.31 0.31 0.30 0.30 0.30 0.31 0.30 0.30 0.31 0.32 0.32 0.31 0.30 0.29 0.29 0.31 0.35 0.38 0.38 0.38 0.36 0.34 0.34 0.34 0.34 0.34 0.33 0.33 0.33 0.32 0.31 0.30 0.30 0.28 0.28 0.28 0.29 0.32 0.33 0.33 0.35 0.35 0.35
0.31 0.32 0.32 0.31 0.30 0.30 0.31 0.31 0.30 0.29 0.29 0.28 0.28 0.28 0.28 0.28 0.29 0.33 0.34 0.34 0.33 0.31 0.31 0.31 0.31 0.31 0.32 0.32 0.31 0.32 0.34 0.36 0.36 0.36 0.36 0.39 0.39 0.37 0.35 0.35 0.33 0.33 0.30
0.33 0.33 0.34 0.35 0.34 0.33 0.32 0.30 0.28 0.29 0.28 0.27 0.28 0.30 0.28 0.26 0.27 0.29 0.29 0.29 0.28 0.27 0.26 0.25 0.24 0.24 0.24 0.25 0.27 0.30 0.33 0.34 0.33 0.34 0.34 0.33 0.32 0.32 0.31 0.30 0.30 0.30 0.29
0.35 0.35 0.36 0.37 0.37 0.36 0.34 0.33 0.34 0.33 0.32 0.34 0.37 0.35 0.31 0.30 0.29 0.29 0.30 0.29 0.28 0.28 0.24 0.22 0.22 0.22 0.21 0.22 0.23 0.25 0.27 0.29 0.29 0.29 0.29 0.29 0.28 0.28 0.29 0.31 0.32 0.31 0.30
0.38 0.38 0.39 0.39 0.38 0.36 0.36 0.34 0.33 0.36 0.40 0.42 0.39 0.36 0.33 0.31 0.32 0.30 0.30 0.31 0.31 0.31 0.25 0.24 0.23 0.23 0.22 0.22 0.22 0.22 0.23 0.25 0.26 0.25 0.24 0.25 0.25 0.25 0.26 0.28 0.29 0.29 0.28
0.43 0.43 0.42 0.41 0.39 0.38 0.39 0.39 0.40 0.42 0.43 0.40 0.39 0.37 0.37 0.35 0.33 0.31 0.31 0.32 0.29 0.30 0.28 0.26 0.26 0.26 0.25 0.24 0.24 0.23 0.24 0.25 0.26 0.25 0.24 0.24 0.24 0.25 0.26 0.26 0.25 0.24 0.25
0.42 0.42 0.43 0.42 0.42 0.43 0.44 0.44 0.47 0.48 0.42 0.39 0.39 0.38 0.40 0.39 0.37 0.35 0.34 0.32 0.30 0.29 0.30 0.30 0.30 0.29 0.29 0.28 0.26 0.25 0.25 0.26 0.27 0.26 0.26 0.26 0.26 0.26 0.25 0.25 0.23 0.24 0.24
0.45 0.45 0.44 0.43 0.42 0.44 0.45 0.47 0.46 0.43 0.40 0.40 0.41 0.42 0.41 0.40 0.37 0.36 0.36 0.35 0.34 0.33 0.32 0.32 0.32 0.33 0.32 0.30 0.28 0.28 0.27 0.28 0.27 0.28 0.28 0.28 0.27 0.26 0.24 0.23 0.23 0.23 0.21
0.41 0.40 0.41 0.42 0.42 0.42 0.44 0.43 0.42 0.39 0.39 0.40 0.42 0.46 0.45 0.40 0.39 0.39 0.38 0.37 0.35 0.34 0.34 0.33 0.33 0.34 0.34 0.32 0.31 0.30 0.31 0.30 0.29 0.28 0.28 0.27 0.26 0.25 0.25 0.25 0.24 0.24 0.24
0.39 0.39 0.39 0.39 0.39 0.40 0.43 0.43 0.41 0.39 0.38 0.38 0.40 0.43 0.45 0.43 0.41 0.40 0.40 0.39 0.38 0.38 0.37 0.35 0.34 0.35 0.35 0.33 0.32 0.33 0.32 0.29 0.28 0.28 0.27 0.27 0.26 0.26 0.25 0.26 0.25 0.25 0.24
0.36 0.36 0.37 0.38 0.39 0.41 0.41 0.41 0.39 0.37 0.37 0.38 0.40 0.40 0.42 0.43 0.44 0.44 0.42 0.41 0.39 0.38 0.38 0.37 0.36 0.36 0.38 0.36 0.34 0.35 0.32 0.29 0.28 0.28 0.27 0.27 0.26 0.26 0.25 0.25 0.25 0.24 0.24
0.37 0.37 0.36 0.37 0.37 0.38 0.39 0.39 0.39 0.38 0.38 0.39 0.40 0.40 0.41 0.44 0.44 0.46 0.44 0.42 0.40 0.40 0.40 0.39 0.39 0.39 0.38 0.36 0.37 0.36 0.33 0.30 0.29 0.29 0.29 0.28 0.27 0.27 0.26 0.25 0.25 0.24 0.24
0.39 0.38 0.37 0.36 0.36 0.36 0.36 0.38 0.38 0.39 0.39 0.40 0.41 0.41 0.43 0.45 0.45 0.45 0.45 0.42 0.41 0.41 0.41 0.41 0.42 0.40 0.37 0.38 0.37 0.34 0.32 0.31 0.31 0.31 0.29 0.29 0.28 0.27 0.26 0.25 0.25 0.24 0.24
0.39 0.37 0.35 0.35 0.35 0.37 0.38 0.38 0.38 0.39 0.39 0.41 0.42 0.42 0.43 0.44 0.45 0.45 0.44 0.43 0.42 0.42 0.42 0.42 0.41 0.39 0.39 0.38 0.35 0.33 0.32 0.32 0.32 0.31 0.30 0.29 0.28 0.27 0.26 0.26 0.25 0.24 0.24
Wind_Speed
15 14 13 13 12 12 11 11 11 11 12 15 19 22 26 30 32 34 36 39 41 43 45 46 47 48 49 50 50 51 51 51 53 53 53 51 49 49 48 48 46 42 41
14 14 14 14 14 14 13 11 11 10 10 9 11 13 17 21 26 30 32 33 35 37 39 41 43 45 47 48 49 50 51 52 52 54 52 51 51 49 49 48 48 49 49
14 14 16 16 15 16 15 15 14 12 11 10 8 7 8 11 16 19 22 25 29 34 37 40 43 44 46 47 49 50 51 51 52 52 53 52 51 49 49 48 48 49 49
16 16 16 17 16 16 16 16 16 15 14 13 11 10 8 6 5 7 11 16 20 24 27 31 35 39 43 45 47 49 50 50 50 50 49 50 50 50 50 49 47 47 47
16 16 16 16 16 16 16 16 16 16 15 14 12 11 10 9 8 8 9 11 13 15 17 20 23 27 33 38 42 44 45 46 46 47 46 45 46 46 46 46 46 45 44
14 15 16 16 16 16 16 16 16 15 15 14 14 13 11 11 11 11 12 12 13 15 17 18 20 22 23 26 30 34 39 42 43 41 40 39 39 41 39 40 42 41 40
13 14 14 15 16 16 16 16 16 16 16 15 15 14 13 13 13 13 14 13 14 15 17 18 18 18 19 19 19 20 23 27 30 35 36 33 31 28 29 29 32 32 34
12 13 14 14 15 16 16 16 16 17 16 16 16 15 14 15 15 16 15 14 15 16 16 17 17 17 17 16 16 16 15 15 17 20 23 26 26 28 28 28 26 28 30
12 13 14 15 15 16 16 17 17 17 17 16 16 16 16 16 16 15 14 14 14 15 16 17 17 17 17 16 15 14 13 13 13 14 16 20 23 24 27 28 28 28 26
14 15 16 16 17 17 18 17 17 17 17 17 17 17 17 16 17 16 15 15 15 15 16 17 17 17 17 16 15 14 14 14 14 14 15 17 19 22 22 23 26 25 26
17 17 18 18 18 18 18 18 18 18 18 17 17 17 18 17 17 17 17 16 16 17 18 18 18 18 18 17 16 16 15 15 16 17 17 19 21 22 23 25 24 25 27
19 19 19 19 19 19 19 19 19 18 19 19 19 19 19 19 18 18 18 18 18 19 19 20 20 20 20 19 18 19 19 19 19 19 20 20 21 21 21 22 23 24 25
20 21 21 21 20 20 20 20 20 20 20 21 21 20 20 20 20 20 20 20 20 21 21 22 21 22 21 21 21 21 21 21 22 22 22 23 23 23 24 24 25 25 26
23 22 22 21 21 21 21 21 22 22 22 23 23 22 22 22 23 23 23 23 23 23 24 24 24 24 24 24 24 24 24 24 24 25 25 26 26 26 26 26 27 27 28
24 24 23 23 23 23 24 24 24 24 24 25 25 24 24 25 25 25 26 26 26 26 26 27 27 27 27 27 27 27 27 27 27 28 28 28 29 28 28 28 28 29 29
26 25 25 25 26 27 27 27 27 27 27 27 27 26 27 27 27 27 27 27 27 28 29 29 29 29 29 29 30 30 30 30 30 30 30 30 30 30 30 31 30 31 31
28 28 28 29 29 29 28 28 28 28 29 28 28 28 28 28 28 28 29 29 29 30 31 31 31 30 31 31 31 31 32 32 32 32 32 31 31 31 31 32 31 31 31
30 31 31 31 31 30 30 30 30 30 29 29 29 29 29 29 30 30 30 30 31 32 32 32 31 31 31 31 31 31 32 32 32 32 31 31 31 31 31 31 31 31 32
31 32 32 32 32 31 31 31 31 31 30 30 29 30 30 30 31 31 32 32 32 33 33 32 32 31 31 31 30 31 31 32 32 31 30 30 30 29 29 30 30 31 31
33 33 33 32 31 31 32 32 31 30 30 30 30 31 31 31 31 32 33 33 33 33 33 32 32 31 30 29 29 29 29 29 27 26 26 27 27 27 27 27 27 28 27
31 31 31 30 31 31 31 30 31 30 31 31 32 32 32 32 33 34 34 34 34 34 33 32 31 30 29 29 28 28 28 27 26 24 24 24 24 25 25 25 25 25 25
29 28 28 29 29 30 30 31 31 31 31 32 32 33 33 33 33 34 34 34 34 33 33 32 31 29 28 28 28 28 27 26 25 24 23 23 22 21 21 21 21 22 22
28 29 29 30 30 31 31 31 31 31 31 32 32 32 33 34 34 35 35 34 33 32 32 31 29 28 28 27 27 27 26 25 24 23 23 22 21 20 19 19 18 18 18
30 30 31 31 31 32 32 31 31 31 31 32 32 33 34 34 34 34 33 33 33 32 31 30 28 27 27 26 25 24 23 22 22 22 21 19 18 17 16 16 16 16 17
31 32 32 32 32 31 31 31 31 30 31 31 32 33 33 33 33 32 32 32 32 30 30 28 27 25 24 23 23 22 22 21 21 20 18 16 15 15 14 14 15 15 15
32 32 32 31 31 30 30 29 29 29 30 31 31 32 32 32 32 31 31 30 30 29 28 26 24 23 22 22 21 22 21 20 18 16 14 14 13 13 13 13 14 14 15
Wind_Direction
1 5 6 3 356 348 341 333 323 310 292 275 265 260 255 252 252 254 256 255 256 257 257 257 258 259 260 261 261 262 262 262 264 265 265 264 263 264 264 262 263 264 262
13 15 16 15 17 13 3 355 351 344 332 311 289 274 265 258 255 255 256 257 257 258 259 260 260 261 261 262 263 262 262 262 263 265 264 263 263 263 263 263 262 261 263
29 32 32 32 29 26 26 24 18 12 9 2 352 331 300 275 264 262 262 262 262 263 263 264 264 264 264 264 264 264 264 264 264 264 264 263 262 262 262 263 263 263 263
40 36 34 32 29 29 29 27 26 27 27 26 24 21 13 1 331 297 283 277 274 273 272 271 270 268 267 266 266 266 265 263 263 263 264 263 262 261 261 263 263 263 264
34 34 30 29 28 26 25 25 24 24 25 23 22 20 15 9 357 338 323 310 301 297 293 289 285 281 276 272 269 268 266 264 263 262 263 264 262 263 261 262 263 263 261
25 25 23 23 22 22 21 20 19 17 17 17 14 10 4 357 347 339 329 320 314 310 307 303 300 297 292 289 282 275 270 265 262 261 262 263 264 263 263 263 261 258 262
12 13 13 13 13 13 12 11 11 10 8 5 2 359 354 349 344 337 331 325 319 316 315 314 312 308 307 301 300 296 285 274 267 260 259 261 261 265 264 261 256 264 262
354 356 358 360 0 1 3 3 2 1 1 359 356 352 346 342 338 335 332 327 325 325 322 320 320 319 315 310 308 307 304 293 279 265 259 258 260 264 264 264 266 265 265
338 339 341 343 345 346 348 348 349 349 350 352 353 353 351 347 345 340 335 333 332 330 329 329 323 320 320 315 309 308 304 296 292 281 269 265 266 268 268 266 265 268 267
323 325 328 329 331 333 334 336 339 341 342 342 343 344 344 343 345 343 337 334 334 331 330 330 325 321 321 317 313 307 303 300 292 287 282 275 275 274 273 269 268 265 266
311 314 317 320 323 325 326 327 328 330 331 333 334 334 334 334 334 336 333 329 326 325 325 325 325 324 321 313 308 304 299 296 294 291 287 282 282 281 276 271 270 269 267
305 308 311 313 315 317 318 319 321 322 323 324 324 325 325 325 326 327 327 325 322 320 319 317 317 317 317 312 306 302 298 293 291 290 289 287 285 283 283 277 274 273 272
298 301 303 305 307 309 311 313 314 314 315 316 317 317 318 319 319 320 321 320 318 316 314 313 312 311 308 306 304 301 297 294 292 289 288 286 285 283 282 280 279 278 276
293 295 297 300 302 304 305 306 308 309 310 311 311 310 310 311 312 312 312 312 312 312 311 309 308 307 305 303 301 299 296 294 291 289 288 286 284 284 284 283 281 281 279
289 290 292 294 296 299 300 302 302 304 305 307 306 305 306 307 307 307 308 308 308 307 307 307 306 304 302 301 299 297 295 293 291 290 289 287 285 284 283 282 282 282 282
286 288 288 290 293 295 297 299 299 301 302 303 303 302 304 304 305 306 306 306 306 306 306 306 304 303 302 300 299 297 295 293 291 289 288 286 285 283 283 284 284 284 285
283 285 287 289 291 293 294 296 298 301 300 300 301 301 301 303 303 304 304 305 305 305 306 305 303 303 302 301 300 298 297 294 291 290 288 286 284 283 284 283 284 285 286
282 283 286 289 289 290 291 293 296 298 299 299 298 299 300 301 302 302 303 305 305 304 305 304 303 303 302 302 302 301 299 297 293 291 289 287 285 284 283 283 285 285 286
283 284 286 287 287 288 290 292 294 295 295 296 298 299 299 299 301 301 302 302 303 303 303 302 302 302 301 302 302 304 303 301 297 292 289 288 288 286 285 286 286 287 289
285 284 285 286 287 288 290 292 293 293 293 294 295 297 299 300 301 301 302 302 302 302 302 301 301 300 300 300 302 305 307 306 302 298 294 293 290 288 287 288 288 290 291
287 286 285 286 287 289 291 292 292 292 293 293 294 295 296 297 299 300 301 300 300 301 300 299 299 298 298 299 301 303 305 304 303 301 299 298 295 292 291 291 291 292 294
289 287 286 287 289 290 291 292 293 293 293 293 295 296 295 297 299 300 301 300 300 300 299 298 296 296 297 297 300 301 302 302 300 300 299 300 298 296 295 294 295 296 298
289 288 288 289 290 291 292 292 292 293 293 294 296 297 298 297 299 300 300 300 300 300 298 297 294 293 296 297 299 300 301 301 299 300 299 297 297 297 297 298 298 300 303
288 288 288 289 290 291 292 292 292 292 293 295 296 298 299 299 300 299 300 301 301 300 298 295 292 291 295 296 298 298 299 299 299 300 300 298 297 297 297 299 300 303 307
288 288 288 289 290 290 292 292 292 293 294 296 297 299 300 300 301 301 301 301 301 300 298 294 291 290 292 294 295 297 297 297 298 298 297 295 294 296 298 299 300 303 308
289 288 288 288 289 290 291 292 293 295 297 298 299 300 301 302 301 302 302 301 301 299 297 293 288 287 289 291 293 296 295 295 295 294 293 293 293 295 298 299 301 305 309